Powrót do katalogu

COSMOS 2268

AktywnyMilitariaPO
NORAD 22999·PAYLOAD·🇷🇺 Russia

Wystrzelony Feb 12, 1994 z Plesetsk Cosmodrome

Loading…

Następne Przeloty (najbliższe 24 godziny)

TLE

ŚwieżeSource: Space-Track

Epoka: Sep 14, 2026, 13:20 UTC

1 22999U 94011A   26257.55600752  .00000007  00000-0 -17338-4 0  9992
2 22999  82.5726 283.5937 0010246   7.2296 160.8413 12.61229406500022

Śledź COSMOS 2268 w czasie rzeczywistym z AllMySat

Download on the App Store